Regional Weather Roundup
Issued by NWS

Home | Current Version | Previous Version | Text Only | Print | Product List | Glossary Off
Versions: 1 2 3 4 5 6 7 8 9 10 11 12 13 14 15 16 17 18 19 20 21 22 23 24 25 26 27 28 29 30 31 32 33 34 35 36 37 38 39 40 41 42 43 44 45 46 47 48 49 50

000
ASUS43 KTOP 252159
RWRKS

WEATHER ROUNDUP FOR KANSAS
NATIONAL WEATHER SERVICE GOODLAND KS
500 PM CDT WED APR 25 2018

NOTE:  "FAIR" INDICATES FEW OR NO CLOUDS BELOW 12,000 FEET WITH NO
SIGNIFICANT WEATHER AND/OR OBSTRUCTIONS TO VISIBILITY.

KSZ001>006-013>018-027>032-041>047-252300-
NORTHWEST KANSAS

CITY           SKY/WX    TMP DP  RH WIND       PRES   REMARKS
GOODLAND       SUNNY     59  32  36 N10       30.14F
HAYS           MOSUNNY   58  34  40 N15       30.13F
HILL CITY      SUNNY     60  36  40 N12G20    30.14F
RUSSELL        CLOUDY    54  40  59 N9        30.13F
$$

KSZ061>065-074>080-084>089-252300-
SOUTHWEST KANSAS

CITY           SKY/WX    TMP DP  RH WIND       PRES   REMARKS
DODGE CITY     MOSUNNY   57  36  45 N15G24    30.15F
GARDEN CITY    MOSUNNY   58  34  40 N13G24    30.15F
GREAT BEND     CLOUDY    53  40  61 N14       30.14F
LIBERAL        PTSUNNY   59  37  44 N14       30.17F
$$

KSZ066>073-081>083-090>101-252300-
SOUTHEAST KANSAS

CITY           SKY/WX    TMP DP  RH WIND       PRES   REMARKS
CHANUTE        LGT RAIN  53  50  89 N12       30.04F
COFFEYVILLE    LGT RAIN  53  51  93 W9        30.03F
HUTCHINSON     CLOUDY    50  43  77 N15       30.12F
MEDICINE LODGE   N/A     53  40  61 N15G25    30.13F
NEWTON         CLOUDY    45  43  93 N16G24    30.11F
PARSONS        LGT RAIN  53  51  93 N9        30.04F
WICHITA INTL   CLOUDY    48  44  86 N20       30.11F
WICHITA JABRA  CLOUDY    47  45  93 NW16      30.10F
WICHITA MCCONL CLOUDY    46  45  93 N15       30.10F
WINFIELD       CLOUDY    49  46  90 NW18      30.10F
$$

KSZ007>012-019>026-033>040-048>060-102>105-252300-
NORTHEAST KANSAS

CITY           SKY/WX    TMP DP  RH WIND       PRES   REMARKS
CONCORDIA      CLOUDY    50  40  68 N12       30.13F
EMPORIA        LGT RAIN  49  45  86 N9        30.07F
LAWRENCE       LGT RAIN  50  48  93 N6        30.08F
MANHATTAN      CLOUDY    49  44  83 N7        30.12F
OLATHE IND     LGT RAIN  50  48  93 N12       30.07F FOG
OLATHE EXE     LGT RAIN  48  47  96 NE12      30.06F
SALINA         CLOUDY    50  45  83 N10       30.13F
TOPEKA BILLARD LGT RAIN  50  49  96 N9        30.08F
TOPEKA FORBES  LGT RAIN  50  48  93 N8        30.08F
$$




USA.gov is the U.S. government's official web portal to all federal, state and local government web resources and services.